CZ-4C DEB, 44618

Orbit data source: Space-Track

CZ-4C DEB, 44618 is space debris in LEO originally from a launch on Tue, 10 Apr 2018 UTC launched from the Taiyaun Space Center, China (TSC). Debris objects in space refer to the collection of defunct objects orbiting the Earth. Examples of debris include non-operational satellites, rocket bodies, and fragments generated from explosions, collisions, or faulty payload assembly.

Loading next visibility...
Identifier
44618, 2018-034K
Orbit
LEO
Last TLE update
1 day ago
Origin
Manufacturer
Unknown
Mission
Spacecraft
Bus & Motor
Unknown
Mass
Unknown
Launch date (UTC)
2018-04-10 (7 years ago)
Launch vehicle
Unknown
Launch site
Taiyaun Space Center, China (TSC)
Object type
Payload
Rocket body
Debris
Shape & HBR
Unknown
Radar Cross Section
Small (<0.1 m²)

Expand to show TLE details & history

TLE from 1 day ago
0 CZ-4C DEB
1 44618U 18034K   25128.23759259 -.00000040  00000-0  75649-4 0  9999
2 44618  63.4646 107.0439 0222522 347.4725  12.0822 13.42023034322504
Epoch: 2025-05-08T05:42Z
Definitive object data (Epoch: 2025-05-08T05:42:07.999Z)
Latitude
-0.00003°
Longitude
155.19959°
Altitude
940.918 km
Speed
7.462 km/s
True Right ascension
07h 08m 10s
True Declination
0° 00' 00"
Sunlit
Object was in daylight at TLE epoch
Visualization TLE readout
Latitude
63.54917°
Longitude
-114.28232°
Altitude
1,148.053 km
Speed
7.268 km/s
Apparent Right ascension
02h 19m 19s
Apparent Declination
59° 01' 26"
Sunlit
Object is in daylight
Visualization observer readout
Local Sidereal Time
13:32:19
Azimuth
353.902° N
Elevation
9.42°
Doppler factor
1
Orbital elements
Apogee altitude
1,266.993 km
Perigee altitude
934.158 km
Semi-major axis
7,478.712 km
Eccentricity
0.0222522
Inclination
63.4646°
RAAN
107.0439°
Arg. of periapsis
347.4725°
True anomaly
12.63083°
Mean anomaly
12.0822°
Eccentric anomaly
12.355°
Mean motion
3.35585 °/min
BSTAR
0.000075649
Orbital period
107.28 mins
Loading maneuver chart data...
Loading SW <> Apogee altitude chart data...
Loading historical data...
Loading historical data...
Loading historical data...
Loading historical data...
Loading historical data...
Loading historical data...
Loading historical data...

CZ-4C DEB Visibility forecast

Observer location: undefined°, undefined°

Span
Click to sort rows by Start time (UTC) header in descending order
Start Az.
Max El. time (UTC)
Max El. Az.
Max El.
End time (UTC)
End Az.
11 mins2025-05-09 07:14:39.985Z348.84° N2025-05-09 07:19:39.985Z37.861° NE23.849°2025-05-09 07:25:39.985Z90.88° ESE
13 mins2025-05-09 09:05:39.985Z325.37° NNW2025-05-09 09:11:39.985Z179.866° S44.89°2025-05-09 09:18:39.985Z149.825° SSE
7 mins2025-05-09 10:58:39.985Z278.936° WNW2025-05-09 11:01:39.985Z252.218° W17.061°2025-05-09 11:05:39.985Z219.502° SW
9 mins2025-05-09 22:57:39.985Z155.093° SSE2025-05-09 23:01:39.985Z105.075° ESE24.114°2025-05-09 23:06:39.985Z55.831° ENE
11 mins2025-05-10 00:46:39.985Z235.297° WSW2025-05-10 00:51:39.985Z309.394° NW39.487°2025-05-10 00:57:39.985Z25.622° NE
6 mins2025-05-10 02:41:39.985Z308.811° NW2025-05-10 02:44:39.985Z338.565° N15.327°2025-05-10 02:47:39.985Z5.58° NNE
|